EW0898 Weather Reports


time (UTC)temp
F
wind
direction
speed
knots
gust
knots
rain 1hr
in
rain 24hr
in
rain mn
in
humidity
%
barometer
mb
20260502205003 62 149 4.3 10.4 0.00 0.00 0.00 74 1014.4
20260502204003 60 24 0.9 3.5 0.00 0.00 0.00 75 1014.0
20260502203003 62 16 0.9 2.6 0.00 0.00 0.00 73 1013.9
20260502202003 62 14 1.7 2.6 0.00 0.00 0.00 73 1013.6
20260502201216 61 13 0.9 2.6 0.00 0.00 0.00 73 1013.8
20260502200003 62 14 0.9 2.6 0.00 0.00 0.00 73 1014.0
20260502195003 63 13 0.9 2.6 0.00 0.00 0.00 73 1014.0
20260502194003 64 12 0.9 2.6 0.00 0.00 0.00 73 1014.0
20260502193003 63 12 0.0 1.7 0.00 0.00 0.00 73 1014.0
20260502192003 64 12 0.9 2.6 0.00 0.00 0.00 72 1013.9
20260502191216 64 12 0.9 2.6 0.00 0.00 0.00 73 1013.8
20260502190004 64 11 0.9 2.6 0.00 0.00 0.00 72 1013.7
20260502185215 65 11 1.7 2.6 0.00 0.00 0.00 71 1013.8
20260502184003 65 12 1.7 4.3 0.00 0.00 0.00 71 1013.8
20260502183219 66 14 1.7 4.3 0.00 0.00 0.00 71 1013.8
20260502182003 66 6 1.7 4.3 0.00 0.00 0.00 71 1013.8
20260502181003 67 341 2.6 7.0 0.00 0.00 0.00 70 1013.8
20260502164003 74 269 3.5 6.1 0.00 0.00 0.00 61 1014.2
20260502163003 73 257 4.3 7.8 0.00 0.00 0.00 63 1014.3
20260502162003 74 245 3.5 6.1 0.00 0.00 0.00 58 1014.4
20260502161003 74 214 3.5 7.0 0.00 0.00 0.00 58 1014.5
20260502152003 75 220 4.3 8.7 0.00 0.00 0.00 56 1014.9
20260502151218 74 241 5.2 8.7 0.00 0.00 0.00 57 1015.1
20260502123003 74 231 6.1 13.0 0.00 0.00 0.00 53 1016.6
20260502122003 74 228 5.2 12.2 0.00 0.00 0.00 56 1016.6
20260502121003 74 209 7.0 12.2 0.00 0.00 0.00 54 1016.6
20260502115003 73 231 7.8 13.0 0.00 0.00 0.00 57 1016.7
20260502114003 74 254 7.0 12.2 0.00 0.00 0.00 56 1016.8
20260502113003 74 238 6.1 13.0 0.00 0.00 0.00 51 1016.9
20260502112219 74 248 6.1 11.3 0.00 0.00 0.00 59 1016.7
20260502111003 74 245 7.8 12.2 0.00 0.00 0.00 55 1016.9
20260502110003 74 232 7.0 13.9 0.00 0.00 0.00 54 1017.0
20260502105003 73 203 6.1 11.3 0.00 0.00 0.00 53 1017.0
20260502104003 73 210 5.2 12.2 0.00 0.00 0.00 47 1017.0
20260502103003 72 194 5.2 9.6 0.00 0.00 0.00 48 1017.1
20260502102218 71 187 5.2 8.7 0.00 0.00 0.00 48 1017.2
20260502101003 71 181 4.3 9.6 0.00 0.00 0.00 48 1017.3
20260502100218 71 177 5.2 8.7 0.00 0.00 0.00 49 1017.4
20260502091003 68 232 4.3 7.8 0.00 0.00 0.00 51 1017.5
20260502071219 64 189 4.3 7.0 0.00 0.00 0.00 53 1017.8
20260502070003 62 186 5.2 9.6 0.00 0.00 0.00 52 1018.0
20260502065003 62 180 5.2 9.6 0.00 0.00 0.00 51 1018.2
20260502064217 62 171 6.1 9.6 0.00 0.00 0.00 51 1018.1
20260502063003 60 164 6.1 9.6 0.00 0.00 0.00 54 1018.0
20260502062217 59 160 6.1 10.4 0.00 0.00 0.00 56 1018.0
20260502061003 58 158 4.3 7.8 0.00 0.00 0.00 59 1017.9
20260502060003 56 164 4.3 7.8 0.00 0.00 0.00 62 1017.8
20260502055003 56 163 2.6 5.2 0.00 0.00 0.00 62 1017.8
20260502054003 54 165 3.5 6.1 0.00 0.00 0.00 64 1017.8
20260502053003 53 165 3.5 4.3 0.00 0.00 0.00 66 1017.9
20260502052003 52 167 3.5 5.2 0.00 0.00 0.00 66 1017.9
20260502051218 51 168 3.5 5.2 0.00 0.00 0.00 67 1018.0
20260502050216 50 167 2.6 3.5 0.00 0.00 0.00 66 1018.0
20260502045003 49 167 2.6 4.3 0.00 0.00 0.00 66 1018.0
20260502044003 47 168 0.9 1.7 0.00 0.00 0.00 70 1017.9
20260502043003 48 168 0.9 1.7 0.00 0.00 0.00 70 1017.9
20260502042003 48 168 0.9 1.7 0.00 0.00 0.00 68 1017.8
20260502041003 47 168 1.7 3.5 0.00 0.00 0.00 68 1018.0
20260502040216 47 168 1.7 3.5 0.00 0.00 0.00 69 1018.0
20260502035218 48 168 1.7 3.5 0.00 0.00 0.00 69 1018.1
20260502034003 49 168 1.7 3.5 0.00 0.00 0.00 65 1018.3
20260502033003 49 168 1.7 3.5 0.00 0.00 0.00 66 1018.3
20260502032216 49 168 0.9 3.5 0.00 0.00 0.00 66 1018.5
20260502031003 50 169 1.7 4.3 0.00 0.00 0.00 66 1018.5
20260502030003 48 170 1.7 3.5 0.00 0.00 0.00 69 1018.6
20260502025003 49 170 1.7 3.5 0.00 0.00 0.00 68 1018.5
20260502024003 48 170 0.9 3.5 0.00 0.00 0.00 69 1018.5
20260502023003 48 170 0.9 1.7 0.00 0.00 0.00 69 1018.5
20260502022003 50 170 1.7 3.5 0.00 0.00 0.00 63 1018.7